Orbital Elements at Epoch 2459000.5 (2020-May-31.0) TDB
Reference: JPL 13 (heliocentric ecliptic J2000)
Element | Value | Uncertainty (1-sigma) | Units |
e | .1567648265343119 | 7.2544e-08 | |
a | 2.55032231344316 | 1.8979e-08 | au |
q | 2.150521478369658 | 1.8928e-07 | au |
i | 8.383736913119348 | 6.1987e-06 | deg |
node | 86.63347007249996 | 4.4312e-05 | deg |
peri | 283.0935350547066 | 4.9945e-05 | deg |
M | 114.3596455858098 | 2.4924e-05 | deg |
tp | 2458527.935239478235 (2019-Feb-13.43523948) | 0.000101 | TDB |
period | 1487.61665809976 4.07 | 1.6606e-05 4.546e-08 | d yr |
n | .241997827894623 | 2.7014e-09 | deg/d |
Q | 2.950123148516662 | 2.1954e-08 | au |
|
| | Orbit Determination Parameters
Additional Information
|